Location: Erdweis
(48.5167°N, 15.3500°E)
Time: 10:43:40
(UTC+00:00)

Cosmos 1844 Rocket - Pass Details

Date: 18 September 2020
Orbit: 823 x 846 km, 71.0° (Epoch: 24 October)

Event Time Altitude Azimuth Distance (km) Brightness Sun altitude
Rises 19:39:24 0° 214° (SSW) 3,347 5.8 -25.0°
Reaches altitude 10° 19:41:50 10° 216° (SW) 2,420 5.1 -25.3°
Maximum altitude 19:47:21 70° 300° (WNW) 883 2.9 -26.0°
Drops below altitude 10° 19:52:57 10° 24° (NNE) 2,446 5.2 -26.8°
Sets 19:55:25 0° 27° (NNE) 3,386 6.0 -27.1°
